This demonstration page uses our WeatherBlox Daily Observations layout. Learn more.

Left ArrowRight Arrow

34.16533, -84.80231

Hourly Observations for March 13, 2017

Temp ( °F °C ) Dew Point ( °F °C ) Humidity (%) Winds ( mph kmh ) Pressure ( in mb ) Visibility ( mi km ) Precip ( " mm )
12:53 am 00:53 Clear 36 2.2 34 1.1 93 93 undefined N/A 30.24 1024 10 16 0.00 0.00
1:29 am 01:29 Mostly Cloudy 36 2.2 33 0.6 89 89 undefined N/A 30.27 1025 10 16 0.00 0.00
1:53 am 01:53 Cloudy 37 2.8 34 1.1 89 89 undefined N/A 30.24 1024 10 16 0.00 0.00
2:08 am 02:08 Cloudy 37 2.8 34 1.1 89 89 undefined N/A 30.27 1025 10 16 0.00 0.00
2:53 am 02:53 Cloudy 38 3.3 34 1.1 86 86 undefined N/A 30.25 1024 10 16 0.00 0.00
3:40 am 03:40 Cloudy 38 3.3 33 0.6 83 83 undefined N/A 30.24 1024 10 16 0.00 0.00
3:53 am 03:53 Cloudy 38 3.3 33 0.6 83 83 undefined N/A 30.22 1023 10 16 0.00 0.00
4:53 am 04:53 Mostly Cloudy 37 2.8 32 0 82 82 undefined N/A 30.21 1023 10 16 0.00 0.00
5:13 am 05:13 Partly Cloudy 36 2.2 32 0 86 86 undefined N/A 30.24 1024 10 16 0.00 0.00
5:53 am 05:53 Mostly Clear 35 1.7 32 0 89 89 undefined N/A 30.20 1023 10 16 0.00 0.00
6:21 am 06:21 Mostly Cloudy 35 1.7 32 0 89 89 undefined N/A 30.24 1024 10 16 0.00 0.00
6:37 am 06:37 Cloudy 36 2.2 32 0 86 86 undefined N/A 30.24 1024 10 16 0.00 0.00
6:53 am 06:53 Cloudy 36 2.2 32 0 86 86 undefined N/A 30.19 1023 10 16 0.00 0.00
7:53 am 07:53 Cloudy 37 2.8 31 -0.6 79 79 undefined N/A 30.17 1022 10 16 0.00 0.00
8:53 am 08:53 Cloudy 37 2.8 30 -1.1 76 76 undefined N/A 30.19 1023 10 16 0.00 0.00
9:53 am 09:53 Cloudy 38 3.3 29 -1.7 70 70 undefined N/A 30.20 1023 10 16 0.00 0.00
10:53 am 10:53 Cloudy 39 3.9 29 -1.7 67 67 undefined N/A 30.19 1022 10 16 0.00 0.00
11:53 am 11:53 Cloudy 41 5 30 -1.1 65 65 undefined N/A 30.19 1022 10 16 0.00 0.00
12:53 pm 12:53 Cloudy 42 5.6 31 -0.6 65 65 undefined N/A 30.14 1021 10 16 0.00 0.00
1:53 pm 13:53 Cloudy 43 6.1 32 0 65 65 undefined N/A 30.11 1020 10 16 0.00 0.00
2:53 pm 14:53 Cloudy 42 5.6 36 2.2 79 79 undefined N/A 30.08 1019 10 16 0.01 0.25
3:53 pm 15:53 Cloudy 43 6.1 35 1.7 74 74 undefined N/A 30.02 1017 7 11 0.00 0.00
4:53 pm 16:53 Cloudy 44 6.7 36 2.2 73 73 undefined N/A 29.98 1015 10 16 0.00 0.00
5:53 pm 17:53 Cloudy 43 6.1 36 2.2 76 76 undefined N/A 29.96 1015 10 16 0.00 0.00
6:53 pm 18:53 Cloudy with Mist and Fog 41 5 37 2.8 86 86 undefined N/A 29.95 1014 6 10 0.00 0.00
7:39 pm 19:39 Cloudy with Mist and Fog 41 5 38 3.3 89 89 undefined N/A 30.00 1016 3 4 0.00 0.00
7:48 pm 19:48 Cloudy with Mist and Fog 39 4 39 4 100 100 undefined N/A 30.00 1016 3 5 0.00 0.00
7:53 pm 19:53 Cloudy with Mist and Fog 41 5 39 3.9 93 93 undefined N/A 29.97 1015 3 5 0.00 0.00
8:17 pm 20:17 Cloudy with Mist and Fog 41 5 39 3.9 93 93 undefined N/A 30.03 1017 3 4 0.00 0.00
8:26 pm 20:26 Cloudy with Mist and Fog 40 4.4 39 3.9 97 97 undefined N/A 30.03 1017 2 3 0.00 0.00
8:49 pm 20:49 Cloudy with Light Rain 39 4 39 4 100 100 undefined N/A 30.03 1017 3 4 0.02 0.51
8:53 pm 20:53 Cloudy with Light Rain 40 4.4 39 3.9 97 97 undefined N/A 29.98 1015 3 4 0.02 0.51
9:11 pm 21:11 Cloudy with Light Rain 40 4.4 39 3.9 97 97 undefined N/A 30.00 1016 3 5 0.01 0.25
9:40 pm 21:40 Cloudy with Light Rain 40 4.4 39 3.9 97 97 undefined N/A 30.00 1016 3 4 0.02 0.51
9:45 pm 21:45 Cloudy with Light Rain 40 4.4 39 3.9 97 97 undefined N/A 30.00 1016 3 5 0.03 0.76
9:53 pm 21:53 Cloudy with Light Rain 40 4.4 39 3.9 97 97 undefined N/A 29.96 1015 4 6 0.04 1.02
10:00 pm 22:00 Cloudy with Rain 40 4.4 39 3.9 97 97 undefined N/A 30.00 1016 4 6 0.02 0.51
10:22 pm 22:22 Cloudy with Light Rain 40 4.4 39 3.9 97 97 undefined N/A 30.00 1016 4 6 0.06 1.52
10:35 pm 22:35 Cloudy with Rain 40 4.4 39 3.9 97 97 undefined N/A 30.00 1016 4 6 0.10 2.54
10:45 pm 22:45 Cloudy with Light Rain 40 4.4 39 3.9 97 97 undefined N/A 30.00 1016 3 4 0.12 3.05
10:53 pm 22:53 Cloudy with Light Rain 40 4.4 39 3.9 97 97 undefined N/A 29.97 1015 3 5 0.14 3.56
11:14 pm 23:14 Cloudy with Light Rain 40 4.4 39 3.9 97 97 undefined N/A 30.00 1016 4 6 0.02 0.51
11:43 pm 23:43 Cloudy with Light Rain 40 4.4 40 4.4 100 100 undefined N/A 30.00 1016 5 8 0.03 0.76
11:53 pm 23:53 Cloudy with Light Rain 40 4.4 39 3.9 97 97 undefined N/A 29.96 1014 5 8 0.04 1.02

Powered by AerisWeather